sat.trackr.live / text

‹ back to catalog

STARLINK-35884

NORAD 67044 · 2025-294Q

PAYLOAD ACTIVE UNKNOWN

§ Identity

Operator
Country
US
Launch date
2025-12-11
Launch site
AFETR
Launch vehicle
Mass (kg)
RCS (m²)

Purposes: comms

External: N2YO · Heavens-Above · Gunter

§ Orbital elements

Epoch: 2026-09-20T08:16:35.912640Z

Period
94.27 min
Inclination
42.9995°
Eccentricity
0.0001052
Mean motion
15.27584284 rev/d
Perigee alt
482.3 km
Apogee alt
483.8 km
Semi-major
6,861.2 km
B*
3.4990e-4
RAAN
18.3851°
Arg perigee
284.4645°
Mean anomaly
75.6090°
Rev number
4,457

§ Raw data

STARLINK-358841 67044U 25294Q   26263.34486010  .00009380  00000+0  34990-3 0  99952 67044  42.9995  18.3851 0001052 284.4645  75.6090 15.27584284 44571

JSON: /api/v1/satellites/67044 · /tle

For live sub-satellite position, see the globe view (requires WebGL).

§ Visibility from observer

Set your observer location to see the next 7 days of passes ≥ 10°. The values pass through the URL so the page stays shareable.

No JS? Fill the form by hand. The geolocation button needs JavaScript.